Regional Weather Roundup
Issued by NWS Kansas City/Pleasant Hill, MO

Home | Current Version | Previous Version | Graphics & Text | Print | Product List | Glossary Off
Versions: 1 2 3 4 5 6 7 8 9 10 11 12 13 14 15 16 17 18 19 20 21 22 23 24 25 26 27 28 29 30 31 32 33 34 35 36 37 38 39 40 41 42 43 44 45 46 47 48 49 50

773
ASUS43 KEAX 081010
RWREAX

WEATHER ROUNDUP FOR EASTERN KANSAS AND NORTHWEST MISSOURI
NATIONAL WEATHER SERVICE KANSAS CITY/PLEASANT HILL MO
400 AM CST THU DEC 08 2016

KSZ040-057-103>105-MOZ028-029-037-043-081100-
...KANSAS CITY METROPOLITAN AREA...

CITY           SKY/WX    TMP DP  RH WIND       PRES   REMARKS
K.C. INTL      CLEAR     16   6  65 NW9       30.50S WCI   4
K.C. DOWNTOWN  CLEAR     19   8  62 W9        30.53R WCI   8
LEES SUMMIT    CLEAR     18   8  65 NW10      30.50S WCI   6
OLATHE - IXD   CLEAR     17   9  70 NW15      30.52S WCI   2
OLATHE - OJC   CLEAR     16   6  65 NW12      30.51S WCI   3
LAWRENCE       CLEAR     16   8  71 W10       30.56R WCI   4

$$

MOZ001>008-011>017-020>025-030>033-038>040-044>046-053-054-081100-
...NORTHERN AND CENTRAL MISSOURI...

CITY           SKY/WX    TMP DP  RH WIND       PRES   REMARKS
ST. JOSEPH     CLEAR     15   6  67 NW14      30.53R WCI   0
MOSBY          SUNNY     19   9  63 NW10      30.51S WCI   8
WARRENSBURG    CLEAR     19   9  63 W8G16     30.50S WCI   9
WHITEMAN AFB   CLEAR     20  13  74 W10       30.48S WCI   9
CLINTON        CLEAR     18  10  73 W6        30.51S WCI   9
SEDALIA        CLEAR     19  10  68 W10       30.48S WCI   7
WARSAW         NOT AVBL
CHILLICOTHE      N/A     18   7  62 W8        30.48S WCI   8
KIRKSVILLE     CLEAR     16   8  71 W12G21    30.40S WCI   3

$$

MOZ041-047>049-056>058-063>065-088>090-097-081100-
...EASTERN AND SOUTHERN MISSOURI...

CITY           SKY/WX    TMP DP  RH WIND       PRES   REMARKS
ST. LOUIS INTL CLEAR     24  10  55 W20       30.39F WCI  10
SPIRIT OF STL  PTCLDY    23  11  60 W9        30.41F WCI  13
COLUMBIA       CLEAR     19  10  68 W14       30.43F WCI   6
JEFFERSON CITY PTCLDY    20  11  68 W10       30.47S WCI   9
ROLLA          CLEAR     19  11  70 W12       30.41S WCI   7
OSAGE BEACH    CLEAR     21  11  65 W8        30.48  WCI  11
SPRINGFIELD    CLOUDY    20  12  71 W8        30.47F WCI  10
BRANSON        PTCLDY    23  14  68 NW7       30.49R WCI  15
JOPLIN         CLOUDY    19  13  77 NW8       30.56R WCI   9
WEST PLAINS    CLEAR     23  15  71 NW10      30.43S WCI  12

$$

IAZ060-094-KSZ022-034>040-054-083-096-NEZ052-066-093-081100-
...KANSAS...SOUTHEAST NEBRASKA AND IOWA...

CITY           SKY/WX    TMP DP  RH WIND       PRES   REMARKS
TOPEKA         CLEAR     17   7  64 W9        30.57R WCI   6
MANHATTAN      CLEAR     15   6  67 W5        30.60R WCI   8
EMPORIA        CLEAR     15   8  73 NW12      30.56R WCI   2
CHANUTE        CLEAR     18  10  71 NW8       30.56S WCI   8
WICHITA        CLEAR     19   9  65 NW14      30.60R WCI   6
OMAHA          PTCLDY    13   4  67 NW17      30.51R WCI  -4
LINCOLN        CLEAR     13   2  61 NW14      30.55R WCI  -2
FALLS CITY     CLEAR     14   6  70 NW13      30.52R WCI   0
LAMONI         CLEAR     14   6  70 NW16      30.41S WCI  -2
DES MOINES     PTCLDY    14   5  67 NW18      30.40R WCI  -3

$$





USA.gov is the U.S. government's official web portal to all federal, state and local government web resources and services.